Location: Dehesa de la Cepeda
(40.6574°N, 4.3013°W)
Time: 08:13:46
(UTC+00:00)

Vanguard 3 - Pass Details

Date: 09 August 2021
Orbit: 510 x 3260 km, 33.3° (Epoch: 18 September)

Event Time Altitude Azimuth Distance (km) Brightness Sun altitude
Rises 21:15:36 0° 279° (W) 6,056 12.6 -19.0°
Reaches altitude 10° 21:19:28 10° 272° (W) 5,353 12.0 -19.5°
Maximum altitude 21:34:52 42° 210° (SSW) 4,050 10.5 -21.6°
Enters shadow 21:45:55 25° 161° (SSE) 5,008 10.6 -23.0°
